Location: Ermatingen
(47.6706°N, 9.0857°E)
Time: 00:30:15
(UTC+00:00)

Cosmos 1428 Rocket - Pass Details

Date: 05 December 2021
Orbit: 949 x 987 km, 82.9° (Epoch: 17 January)

Event Time Altitude Azimuth Distance (km) Brightness Sun altitude
Rises 04:39:58 0° 150° (SSE) 3,630 8.1 -22.0°
Reaches altitude 10° 04:42:50 10° 138° (SE) 2,683 7.5 -21.5°
Maximum altitude 04:47:46 26° 84° (E) 1,777 6.6 -20.7°
Drops below altitude 10° 04:52:41 10° 30° (NNE) 2,685 7.0 -19.9°
Sets 04:55:34 0° 19° (NNE) 3,633 7.6 -19.4°
